EHI
0 0 0 0 0 0 0 0 0 0 0 0 0 0 0 0 0 0 0 0 0 0 0 0 0 0 0 0 0 0 0 0 0 0 0 0 0 0
0 0 0 0 0 0 0 0 0 0 0 0 0 0 0 0 0 0 0 0 0 0 0 0 0 0 0 0 0 0 0 0 0 0 0 0 0 0
0 0 0 0 0 0 0 0 0 0 0 0 0 0 0 0 0 0 0 0 0 0 0 0 0 0 0 0 0 0 0 0 0 0 0 0 0 0
0 0 0 0 0 0 0 0 0 0 0 0 0 0 0 0 0 0 0 0 0 0 0 0 0 0 0 0 0 0 0 0 0 0 0 0 0 0
0 0 0 0 0 0 0 0 0 0 0 0 0 0 0 0 0 0 0 0 0 0 0 0 0 0 0 0 0 0 0 0 0 0 0 0 0 0
0 0 0 0 0 0 0 0 0 0 0 0 0 0 0 0 0 0 0 0 0 0 0 0 0 0 0 0 0 0 0 0 0 0 0 0 0 0
0 0 0 0 0 0 0 0 0 0 0 0 0 0 0 0 0 0 0 0 0 0 0 0 0 0 0 0 0 0 0 0 0 0 0 0 0 0
0 0 0 0 0 0 0 0 0 0 0 0 0 0 0 0 0 0 0 0 0 0 0 0 0 0 0 0 0 0 0 0 0 0 0 0 0 0
0 0 0 0 0 0 0 0 0 0 0 0 0 0 0 0 0 0 0 0 0 0 0 0 0 0 0 0 0 0 0 0 0 0 0 0 0 0
0 0 0 0 0 0 0 0 0 0 0 0 0 0 0 0 0 0 0 0 0 0 0 0 0 0 0 0 0 0 0 0 0 0 0 0 0 0
0 0 0 0 0 0 0 0 0 0 0 0 0 0 0 0 0 0 0 0 0 0 0 0 0 0 0 0 0 0 0 0 0 0 0 0 0 0
0 0 0 0 0 0 0 0 0 0 0 0 0 0 0 0 0 0 0 0 0 0 0 0 0 0 0 0 0 0 0 0 0 0 0 0 0 0
0 0 0 0 0 0 0 0 0 0 0 0 0 0 0 0 0 0 0 0 0 0 0 0 0 0 0 0 0 0 0 0 0 0 0 0 0 0
0 0 0 0 0 0 0 0 0 0 0 0 0 0 0 0 0 0 0 0 0 0 0 0 0 0 0 0 0 0 0 0 0 0 0 0 0 0
0 0 0 0 0 0 0 0 0 0 0 0 0 0 0 0 0 0 0 0 0 0 0 0 0 0 0 0 0 0 0 0 0 0 0 0 0 0
0 0 0 0 0 0 0 0 0 0 0 0 0 0 0 0 0 0 0 0 0 0 0 0 0 0 0 0 0 0 0 0 0 0 0 0 0 0
0 0 0 0 0 0 0 0 0 0 0 0 0 0 0 0 0 0 0 0 0 0 0 0 0 0 0 0 0 0 0 0 0 0 0 0 0 0
0 0 0 0 0 0 0 0 0 0 0 0 0 0 0 0 0 0 0 0 0 0 0 0 0 0 0 0 0 0 0 0 0 0 0 0 0 0
0 0 0 0 0 0 0 0 0 0 0 0 0 0 0 0 0 0 0 0 0 0 0 0 0 0 0 0 0 0 0 0 0 0 0 0 0 0
0 0 0 0 0 0 0 0 0 0 0 0 0 0 0 0 0 0 0 0 0 0 0 0 0 0 0 0 0 0 0 0 0 0 0 0 0 0
0 0 0 0 0 0 0 0 0 0 0 0 0 0 0 0 0 0 0 0 0 0 0 0 0 0 0 0 0 0 0 0 0 0 0 0 0 0
0 0 0 0 0 0 0 0 0 0 0 0 0 0 0 0 0 0 0 0 0 0 0 0 0 0 0 0 0 0 0 0 0 0 0 0 0 0
0 0 0 0 0 0 0 0 0 0 0 0 0 0 0 0 0 0 0 0 0 0 0 0 0 0 0 0 0 0 0 0 0 0 0 0 0 0
Wind_Speed
1 1 1 0 1 1 1 1 2 2 2 2 1 1 1 2 4 3 3 9 9 10 11 10 10 10 11 11 12 12 12 11 9 8 7 5 3 2
1 2 1 1 0 0 1 1 1 2 2 1 1 1 1 2 5 4 4 9 10 9 9 9 9 9 10 10 11 11 12 12 11 10 9 7 6 5
2 2 1 1 0 0 1 0 1 1 2 1 1 1 2 2 2 3 3 4 4 9 8 8 8 8 9 9 10 10 11 12 12 11 10 9 8 7
2 2 2 1 1 1 1 1 1 1 1 2 1 1 1 1 2 3 3 3 3 7 8 8 8 8 8 9 10 10 10 11 12 11 11 11 11 9
3 2 2 2 1 0 1 1 1 1 0 1 2 1 1 1 2 2 2 3 3 5 7 8 9 8 8 8 9 10 10 10 11 11 11 10 10 10
3 2 2 2 2 1 0 0 0 0 0 1 2 1 1 1 2 1 1 2 2 4 5 5 7 9 9 9 9 9 9 9 10 10 11 10 10 10
3 2 2 2 3 2 1 1 1 1 1 1 1 1 1 1 1 1 1 1 1 2 2 3 3 3 5 7 7 8 8 8 9 10 10 10 10 10
3 2 1 1 1 1 2 2 3 2 2 2 2 2 2 1 1 1 1 1 1 2 2 2 2 2 3 3 5 6 7 7 8 9 9 9 9 9
4 3 2 2 2 2 2 4 3 1 2 3 3 3 3 3 3 2 1 1 1 1 1 1 2 1 2 4 6 6 6 7 7 7 7 7 7 7
4 4 3 2 2 3 2 2 1 2 1 2 2 3 3 3 3 3 3 2 1 1 1 0 1 1 2 3 6 6 5 6 7 7 7 6 6 6
4 4 4 4 6 6 4 3 1 1 1 3 4 4 4 6 5 3 2 1 0 0 1 1 1 2 2 1 3 7 6 6 6 6 6 6 5 5
3 4 7 7 8 8 5 4 3 2 1 1 2 3 2 2 4 3 3 2 1 1 0 1 1 1 2 1 1 2 3 5 6 6 6 5 4 3
4 4 4 10 10 10 8 5 6 4 3 3 2 1 1 1 1 2 2 3 3 2 1 2 1 1 0 2 2 1 1 2 2 3 5 5 4 2
5 4 5 10 11 10 7 8 10 6 3 3 2 2 2 2 2 2 2 2 2 2 2 3 2 2 1 1 2 2 2 1 1 1 2 4 4 5
5 9 10 11 10 7 9 10 7 4 4 3 3 3 3 3 2 2 2 1 1 1 2 3 3 3 2 2 2 2 2 2 1 1 1 2 2 2
6 8 11 11 8 7 7 5 4 5 5 4 3 3 2 3 3 3 2 2 1 1 1 3 4 4 3 4 4 4 3 3 2 2 3 3 3 3
4 3 3 3 4 4 3 3 3 4 5 4 4 3 3 3 3 3 3 3 2 2 1 1 3 3 5 4 4 5 5 4 4 3 3 4 4 4
8 4 5 6 6 6 6 5 5 5 5 5 5 5 5 5 4 3 3 4 4 3 3 2 1 0 2 5 10 6 4 4 3 4 3 3 4 4
8 5 6 6 6 6 6 6 6 6 5 5 6 6 5 5 4 4 5 4 4 4 4 3 3 3 2 4 4 8 5 3 2 2 3 4 5 5
6 7 7 6 6 6 6 6 6 5 5 6 6 6 6 5 5 5 6 6 5 4 4 4 5 6 6 4 3 3 7 5 3 3 3 3 5 9
7 7 7 7 7 7 7 6 6 6 6 6 6 7 7 7 6 7 6 10 8 5 6 6 7 10 3 2 3 4 4 9 9 5 3 3 4 3
7 7 7 7 7 7 7 6 7 7 7 7 7 7 7 7 8 8 7 7 7 7 7 4 3 4 4 6 7 5 4 4 8 13 14 11 5 4
6 6 6 6 6 6 6 7 8 7 7 7 7 7 7 7 7 7 7 7 6 7 6 4 4 4 5 6 6 6 7 6 4 5 7 13 18 21
Wind_Direction
138 128 124 69 24 336 302 258 252 252 228 171 150 90 54 58 49 41 31 41 44 49 46 40 36 32 30 27 24 20 17 16 15 17 18 19 17 0
133 125 116 105 54 357 310 283 253 253 250 132 137 121 81 77 64 51 43 48 42 46 44 38 35 34 31 28 24 23 22 25 25 26 28 28 30 34
128 131 124 109 104 7 352 323 276 254 237 135 101 98 98 86 60 52 49 42 28 37 39 37 37 37 34 32 28 25 28 29 29 31 32 33 39 39
140 136 141 128 114 60 33 4 321 299 228 173 135 111 91 96 79 62 44 40 27 31 37 37 38 39 40 38 35 34 34 34 33 33 38 39 41 41
153 157 157 148 145 106 65 25 338 326 323 142 134 109 87 71 73 58 48 30 23 24 32 33 36 40 43 43 40 37 35 36 37 38 41 42 41 41
142 148 153 164 172 167 141 11 347 16 73 117 121 110 99 72 84 72 40 26 19 9 19 29 33 36 36 37 38 36 36 38 40 42 43 44 43 42
137 138 157 173 182 177 169 185 153 134 121 124 129 118 123 118 123 99 85 9 28 16 358 14 16 19 17 12 20 32 38 43 43 42 41 43 44 43
163 156 152 134 151 140 146 153 169 170 173 162 158 171 177 164 135 127 110 80 312 2 14 359 16 18 357 343 10 37 44 47 46 43 41 41 43 43
176 173 175 166 116 79 65 53 32 32 185 171 177 190 179 178 155 140 143 151 204 327 12 347 4 359 348 347 8 42 51 47 42 41 39 39 41 42
184 181 180 179 180 165 138 100 44 14 48 133 171 182 178 164 161 159 155 130 105 33 40 352 347 337 339 342 4 34 41 41 38 36 33 30 29 32
190 189 189 196 218 198 167 167 164 334 41 138 151 158 163 161 150 125 129 112 143 188 33 89 352 329 328 339 359 20 30 33 31 25 20 15 15 27
196 208 214 210 221 214 177 178 197 215 178 105 89 82 74 115 146 146 152 145 163 226 180 107 44 11 344 332 355 360 8 15 18 15 9 4 14 49
198 204 218 223 223 221 197 188 210 196 177 165 149 133 108 102 107 130 146 152 164 211 171 125 125 83 56 307 322 349 355 345 347 353 359 359 2 17
199 198 211 223 227 228 215 205 219 201 159 167 180 195 197 199 184 162 154 151 164 188 174 144 156 163 147 301 297 321 320 303 312 319 332 340 346 334
202 209 214 223 226 229 225 219 214 177 165 187 204 210 204 189 159 141 124 120 123 196 179 174 170 170 177 212 259 287 310 302 283 279 296 295 288 293
203 216 219 222 217 214 224 228 194 180 185 198 203 199 170 164 174 169 167 160 196 262 210 190 185 178 199 222 233 251 241 268 281 265 281 276 260 244
167 166 181 189 199 195 197 201 194 196 207 189 192 190 189 189 190 173 171 168 191 208 223 210 203 206 215 211 236 244 245 248 250 255 264 276 262 246
192 187 199 204 208 207 208 207 205 208 206 199 199 201 201 200 198 182 179 189 209 216 213 200 172 204 275 250 225 238 242 246 245 232 225 255 275 251
206 202 206 207 209 208 209 209 212 210 201 202 207 206 203 201 196 198 198 205 219 223 216 191 179 178 220 272 260 213 205 215 223 233 226 229 259 268
206 209 211 209 208 209 211 213 215 207 203 207 208 206 202 200 202 206 205 208 216 218 217 201 198 198 207 222 247 253 215 209 215 239 247 248 261 272
210 212 212 209 209 209 210 210 210 211 208 206 211 208 204 202 210 211 210 221 219 216 224 223 221 217 196 176 253 254 234 227 223 220 222 254 275 271
214 215 214 212 210 209 209 208 211 213 212 213 213 211 207 206 212 212 210 214 218 219 226 221 186 181 180 210 239 251 255 241 246 251 247 234 227 237
216 215 214 212 212 210 210 212 213 216 213 212 212 210 206 209 213 212 213 214 217 220 217 206 189 194 208 218 239 253 259 258 252 257 256 253 251 253